HB9ZRH-10 Weather Reports


time (UTC)temp
C
wind
direction
speed
KPH
gust
KPH
rain 1hr
cm
rain 24hr
cm
rain mn
cm
humidity
%
barometer
mb
20260502232048 18 0.0 0.0 0.00 0.00 0.00 42 1018.1
20260502231548 18 0.0 0.0 0.00 0.00 0.00 42 1018.1
20260502231048 19 0.0 0.0 0.00 0.00 0.00 41 1018.0
20260502230548 19 0.0 0.0 0.00 0.00 0.00 41 1018.2
20260502230048 20 0.0 0.0 0.00 0.00 0.00 41 1018.2
20260502225548 18 0.0 0.0 0.00 0.00 0.00 41 1018.3
20260502225048 18 0.0 0.0 0.00 0.00 0.00 41 1018.3
20260502224548 18 0.0 0.0 0.00 0.00 0.00 41 1018.2
20260502224048 18 0.0 0.0 0.00 0.00 0.00 40 1018.2
20260502223548 18 0.0 0.0 0.00 0.00 0.00 40 1018.2
20260502223048 18 0.0 0.0 0.00 0.00 0.00 40 1018.2
20260502222548 18 0.0 0.0 0.00 0.00 0.00 40 1018.2
20260502222048 18 0.0 0.0 0.00 0.00 0.00 40 1018.2
20260502221548 18 0.0 0.0 0.00 0.00 0.00 40 1018.2
20260502221048 18 0.0 0.0 0.00 0.00 0.00 39 1018.2
20260502220548 18 0.0 0.0 0.00 0.00 0.00 39 1018.2
20260502220048 18 0.0 0.0 0.00 0.00 0.00 39 1018.2
20260502215548 18 0.0 0.0 0.00 0.00 0.00 39 1018.2
20260502215048 19 0.0 0.0 0.00 0.00 0.00 39 1018.2
20260502214548 19 0.0 0.0 0.00 0.00 0.00 38 1018.2
20260502214048 20 0.0 0.0 0.00 0.00 0.00 38 1018.2
20260502213548 20 0.0 0.0 0.00 0.00 0.00 38 1018.2
20260502213048 21 0.0 0.0 0.00 0.00 0.00 38 1018.1
20260502212548 21 0.0 0.0 0.00 0.00 0.00 38 1018.1
20260502212048 22 0.0 0.0 0.00 0.00 0.00 37 1018.0
20260502211548 23 0.0 0.0 0.00 0.00 0.00 36 1018.0
20260502211048 26 0.0 0.0 0.00 0.00 0.00 35 1018.0
20260502210548 28 0.0 0.0 0.00 0.00 0.00 33 1018.0
20260502210048 26 0.0 0.0 0.00 0.00 0.00 34 1018.1
20260502205548 30 0.0 0.0 0.00 0.00 0.00 32 1018.0
20260502205048 30 0.0 0.0 0.00 0.00 0.00 32 1017.9
20260502204548 30 0.0 0.0 0.00 0.00 0.00 32 1017.9
20260502204048 30 0.0 0.0 0.00 0.00 0.00 32 1017.9
20260502203548 30 0.0 0.0 0.00 0.00 0.00 32 1018.0
20260502203048 30 0.0 0.0 0.00 0.00 0.00 32 1018.1
20260502202548 30 0.0 0.0 0.00 0.00 0.00 32 1018.1
20260502202048 30 0.0 0.0 0.00 0.00 0.00 32 1018.1
20260502201548 30 0.0 0.0 0.00 0.00 0.00 32 1018.1
20260502201048 30 0.0 0.0 0.00 0.00 0.00 32 1018.0
20260502200548 30 0.0 0.0 0.00 0.00 0.00 32 1018.0
20260502200048 30 0.0 0.0 0.00 0.00 0.00 32 1018.1
20260502195548 30 0.0 0.0 0.00 0.00 0.00 32 1018.2
20260502195048 30 0.0 0.0 0.00 0.00 0.00 32 1018.2
20260502194548 30 0.0 0.0 0.00 0.00 0.00 32 1018.1
20260502194048 30 0.0 0.0 0.00 0.00 0.00 32 1018.1
20260502193548 30 0.0 0.0 0.00 0.00 0.00 32 1018.1
20260502193048 30 0.0 0.0 0.00 0.00 0.00 32 1018.1
20260502192548 30 0.0 0.0 0.00 0.00 0.00 32 1018.1
20260502192048 30 0.0 0.0 0.00 0.00 0.00 32 1018.0
20260502191548 29 0.0 0.0 0.00 0.00 0.00 33 1018.1
20260502191048 28 0.0 0.0 0.00 0.00 0.00 33 1018.1
20260502190548 28 0.0 0.0 0.00 0.00 0.00 33 1018.1
20260502190048 28 0.0 0.0 0.00 0.00 0.00 33 1018.1
20260502185548 28 0.0 0.0 0.00 0.00 0.00 33 1018.1
20260502185048 29 0.0 0.0 0.00 0.00 0.00 32 1018.1
20260502184548 30 0.0 0.0 0.00 0.00 0.00 32 1018.1
20260502184048 30 0.0 0.0 0.00 0.00 0.00 32 1018.1
20260502183548 29 0.0 0.0 0.00 0.00 0.00 32 1018.0
20260502183048 29 0.0 0.0 0.00 0.00 0.00 32 1018.0
20260502182548 30 0.0 0.0 0.00 0.00 0.00 32 1017.9
20260502182048 30 0.0 0.0 0.00 0.00 0.00 32 1018.0
20260502181548 30 0.0 0.0 0.00 0.00 0.00 32 1017.9
20260502181048 31 0.0 0.0 0.00 0.00 0.00 32 1017.9
20260502180548 31 0.0 0.0 0.00 0.00 0.00 31 1017.8
20260502164048 31 0.0 0.0 0.00 0.00 0.00 32 1018.0
20260502163548 31 0.0 0.0 0.00 0.00 0.00 32 1018.1
20260502163048 32 0.0 0.0 0.00 0.00 0.00 31 1018.1
20260502162548 32 0.0 0.0 0.00 0.00 0.00 31 1018.1
20260502162048 32 0.0 0.0 0.00 0.00 0.00 31 1018.2
20260502161548 32 0.0 0.0 0.00 0.00 0.00 31 1018.3
20260502161048 31 0.0 0.0 0.00 0.00 0.00 32 1018.4
20260502160548 32 0.0 0.0 0.00 0.00 0.00 31 1018.5
20260502152048 30 0.0 0.0 0.00 0.00 0.00 32 1018.9
20260502151548 30 0.0 0.0 0.00 0.00 0.00 32 1018.9
20260502151048 30 0.0 0.0 0.00 0.00 0.00 32 1019.0
20260502150548 30 0.0 0.0 0.00 0.00 0.00 32 1019.0
20260502130548 31 0.0 0.0 0.00 0.00 0.00 31 1020.7
20260502123548 31 0.0 0.0 0.00 0.00 0.00 31 1021.0
20260502123048 30 0.0 0.0 0.00 0.00 0.00 31 1021.1
20260502122548 30 0.0 0.0 0.00 0.00 0.00 31 1021.1
20260502122048 30 0.0 0.0 0.00 0.00 0.00 31 1021.2
20260502121548 30 0.0 0.0 0.00 0.00 0.00 31 1021.2
20260502121048 30 0.0 0.0 0.00 0.00 0.00 31 1021.3
20260502120548 29 0.0 0.0 0.00 0.00 0.00 31 1021.4
20260502115548 28 0.0 0.0 0.00 0.00 0.00 32 1021.5
20260502115048 28 0.0 0.0 0.00 0.00 0.00 32 1021.6
20260502114548 27 0.0 0.0 0.00 0.00 0.00 32 1021.7
20260502114048 28 0.0 0.0 0.00 0.00 0.00 31 1021.8
20260502113548 28 0.0 0.0 0.00 0.00 0.00 31 1021.8
20260502113048 28 0.0 0.0 0.00 0.00 0.00 31 1021.9
20260502112548 28 0.0 0.0 0.00 0.00 0.00 31 1022.0
20260502112048 28 0.0 0.0 0.00 0.00 0.00 31 1022.1
20260502111548 28 0.0 0.0 0.00 0.00 0.00 31 1022.1
20260502111048 28 0.0 0.0 0.00 0.00 0.00 31 1022.2
20260502110548 28 0.0 0.0 0.00 0.00 0.00 31 1022.2
20260502110048 28 0.0 0.0 0.00 0.00 0.00 31 1022.4
20260502105548 27 0.0 0.0 0.00 0.00 0.00 31 1022.4
20260502105048 27 0.0 0.0 0.00 0.00 0.00 31 1022.5
20260502104548 27 0.0 0.0 0.00 0.00 0.00 31 1022.5
20260502104048 27 0.0 0.0 0.00 0.00 0.00 31 1022.6
20260502103548 27 0.0 0.0 0.00 0.00 0.00 31 1022.6
20260502103048 27 0.0 0.0 0.00 0.00 0.00 31 1022.6
20260502102548 27 0.0 0.0 0.00 0.00 0.00 31 1022.7
20260502102048 27 0.0 0.0 0.00 0.00 0.00 31 1022.8
20260502101548 27 0.0 0.0 0.00 0.00 0.00 31 1022.8
20260502101048 27 0.0 0.0 0.00 0.00 0.00 31 1022.9
20260502100548 27 0.0 0.0 0.00 0.00 0.00 32 1022.9
20260502091048 25 0.0 0.0 0.00 0.00 0.00 33 1023.5
20260502090548 23 0.0 0.0 0.00 0.00 0.00 34 1023.6
20260502071048 27 0.0 0.0 0.00 0.00 0.00 31 1023.5
20260502070548 27 0.0 0.0 0.00 0.00 0.00 31 1023.4
20260502070048 27 0.0 0.0 0.00 0.00 0.00 31 1023.4
20260502065548 27 0.0 0.0 0.00 0.00 0.00 31 1023.4
20260502065048 27 0.0 0.0 0.00 0.00 0.00 31 1023.4
20260502064548 27 0.0 0.0 0.00 0.00 0.00 31 1023.4
20260502064048 26 0.0 0.0 0.00 0.00 0.00 31 1023.4
20260502063548 26 0.0 0.0 0.00 0.00 0.00 31 1023.4
20260502063048 26 0.0 0.0 0.00 0.00 0.00 31 1023.4
20260502062548 27 0.0 0.0 0.00 0.00 0.00 31 1023.4
20260502062048 26 0.0 0.0 0.00 0.00 0.00 31 1023.4
20260502061548 26 0.0 0.0 0.00 0.00 0.00 32 1023.4
20260502061048 26 0.0 0.0 0.00 0.00 0.00 32 1023.4
20260502060548 25 0.0 0.0 0.00 0.00 0.00 32 1023.4
20260502060048 26 0.0 0.0 0.00 0.00 0.00 32 1023.3
20260502055548 26 0.0 0.0 0.00 0.00 0.00 31 1023.3
20260502055048 27 0.0 0.0 0.00 0.00 0.00 31 1023.2
20260502054548 27 0.0 0.0 0.00 0.00 0.00 31 1023.2
20260502054048 27 0.0 0.0 0.00 0.00 0.00 31 1023.2
20260502053548 27 0.0 0.0 0.00 0.00 0.00 31 1023.2
20260502053048 27 0.0 0.0 0.00 0.00 0.00 31 1023.2
20260502052016 28 0.0 0.0 0.00 0.00 0.00 31 1023.1
20260502051516 27 0.0 0.0 0.00 0.00 0.00 31 1023.2
20260502051016 27 0.0 0.0 0.00 0.00 0.00 31 1023.1
20260502050516 27 0.0 0.0 0.00 0.00 0.00 31 1023.1
20260502050016 27 0.0 0.0 0.00 0.00 0.00 31 1023.0
20260502045516 27 0.0 0.0 0.00 0.00 0.00 31 1023.1
20260502045016 27 0.0 0.0 0.00 0.00 0.00 31 1023.1
20260502044516 27 0.0 0.0 0.00 0.00 0.00 31 1023.0
20260502044016 27 0.0 0.0 0.00 0.00 0.00 31 1023.0
20260502043516 27 0.0 0.0 0.00 0.00 0.00 31 1023.0
20260502043016 27 0.0 0.0 0.00 0.00 0.00 31 1022.9
20260502042516 27 0.0 0.0 0.00 0.00 0.00 31 1023.0
20260502042016 27 0.0 0.0 0.00 0.00 0.00 31 1023.0
20260502041516 28 0.0 0.0 0.00 0.00 0.00 30 1023.0
20260502040949 28 0.0 0.0 0.00 0.00 0.00 31 1023.0
20260502040449 28 0.0 0.0 0.00 0.00 0.00 31 1022.9
20260502035949 28 0.0 0.0 0.00 0.00 0.00 30 1022.9
20260502035449 28 0.0 0.0 0.00 0.00 0.00 30 1022.9
20260502034949 28 0.0 0.0 0.00 0.00 0.00 30 1022.9
20260502034449 28 0.0 0.0 0.00 0.00 0.00 30 1022.9
20260502033949 28 0.0 0.0 0.00 0.00 0.00 30 1022.9
20260502033449 28 0.0 0.0 0.00 0.00 0.00 30 1022.9
20260502032949 28 0.0 0.0 0.00 0.00 0.00 30 1022.9
20260502032449 28 0.0 0.0 0.00 0.00 0.00 31 1023.0
20260502031949 28 0.0 0.0 0.00 0.00 0.00 31 1023.0
20260502031449 28 0.0 0.0 0.00 0.00 0.00 31 1022.9
20260502030949 28 0.0 0.0 0.00 0.00 0.00 31 1022.9
20260502030449 28 0.0 0.0 0.00 0.00 0.00 31 1023.0
20260502025949 28 0.0 0.0 0.00 0.00 0.00 31 1023.0
20260502025449 28 0.0 0.0 0.00 0.00 0.00 30 1023.0
20260502024949 28 0.0 0.0 0.00 0.00 0.00 30 1023.0
20260502024449 28 0.0 0.0 0.00 0.00 0.00 30 1023.0
20260502023949 28 0.0 0.0 0.00 0.00 0.00 30 1023.0
20260502023449 28 0.0 0.0 0.00 0.00 0.00 30 1023.0
20260502022949 28 0.0 0.0 0.00 0.00 0.00 30 1023.0
20260502022449 28 0.0 0.0 0.00 0.00 0.00 30 1023.0
20260502021949 28 0.0 0.0 0.00 0.00 0.00 30 1023.1
20260502021449 28 0.0 0.0 0.00 0.00 0.00 31 1023.1
20260502020949 28 0.0 0.0 0.00 0.00 0.00 30 1023.0
20260502020449 28 0.0 0.0 0.00 0.00 0.00 30 1023.0
20260502015949 28 0.0 0.0 0.00 0.00 0.00 31 1023.1
20260502015449 28 0.0 0.0 0.00 0.00 0.00 31 1023.1
20260502014949 28 0.0 0.0 0.00 0.00 0.00 31 1023.1
20260502014449 28 0.0 0.0 0.00 0.00 0.00 31 1023.1
20260502013949 28 0.0 0.0 0.00 0.00 0.00 31 1023.2
20260502013449 28 0.0 0.0 0.00 0.00 0.00 31 1023.2
20260502012949 28 0.0 0.0 0.00 0.00 0.00 31 1023.2
20260502012449 28 0.0 0.0 0.00 0.00 0.00 31 1023.2
20260502011949 28 0.0 0.0 0.00 0.00 0.00 31 1023.2
20260502011449 28 0.0 0.0 0.00 0.00 0.00 31 1023.2
20260502010949 27 0.0 0.0 0.00 0.00 0.00 31 1023.2
20260502010449 27 0.0 0.0 0.00 0.00 0.00 31 1023.3
20260502005949 28 0.0 0.0 0.00 0.00 0.00 31 1023.2
20260502005449 28 0.0 0.0 0.00 0.00 0.00 31 1023.2
20260502004949 28 0.0 0.0 0.00 0.00 0.00 31 1023.3
20260502004449 28 0.0 0.0 0.00 0.00 0.00 31 1023.3
20260502003949 28 0.0 0.0 0.00 0.00 0.00 31 1023.3
20260502003449 28 0.0 0.0 0.00 0.00 0.00 31 1023.3
20260502002949 28 0.0 0.0 0.00 0.00 0.00 31 1023.4
20260502002449 28 0.0 0.0 0.00 0.00 0.00 32 1023.4
20260502001949 27 0.0 0.0 0.00 0.00 0.00 32 1023.4
20260502001449 27 0.0 0.0 0.00 0.00 0.00 32 1023.4
20260502000949 26 0.0 0.0 0.00 0.00 0.00 33 1023.4
20260502000449 26 0.0 0.0 0.00 0.00 0.00 33 1023.4
20260501235949 26 0.0 0.0 0.00 0.00 0.00 33 1023.5
20260501235449 25 0.0 0.0 0.00 0.00 0.00 34 1023.5
20260501234949 23 0.0 0.0 0.00 0.00 0.00 35 1023.7
20260501234449 23 0.0 0.0 0.00 0.00 0.00 35 1023.7
20260501233949 23 0.0 0.0 0.00 0.00 0.00 35 1023.7
20260501233449 23 0.0 0.0 0.00 0.00 0.00 35 1023.7
20260501232949 22 0.0 0.0 0.00 0.00 0.00 35 1023.7
20260501232449 23 0.0 0.0 0.00 0.00 0.00 35 1023.7